Terug naar catalogus

STARLINK-37654

ActiefCommunicatieSSO
NORAD 69141·PAYLOAD·🇺🇸 United States

Gelanceerd May 20, 2026 vanaf Vandenberg Space Force Base

Loading…

Volgende Passages (komende 24 uur)

TLE

VersSource: CelesTrak SupGP

Epoch: Sep 15, 2026, 03:48 UTC

1 69141C 26110T   26258.15881944 -.00055453  00000+0 -17215-2 0  2583
2 69141  97.2849  93.3301 0001760  92.3884 137.5456 15.33465698    11

Volg STARLINK-37654 in realtime met AllMySat

Download on the App Store